Content
SEND FEEDBACK

Daily
Averages
Monthly
Summary
United States of America

CANTON, NEW YORK


Home > North America > United States > New York
Elevation: 440 feet     Latitude: 44 34N     Longitude: 075 07W

WEATHER
 
SELECT A DAY
Number of Records: 221,451;   Date Range: 1/1/95 - 10/23/14
 
SHARE

PRINT THIS DATA

[ ← Previous Day ]
WEATHER ALMANAC - FEBRUARY 13, 2013
[ Next Day → ]
[ °C ]   °F
Weather ElementAverageHighLow
Temperature30.6 °F34 °F (2:53 pm)26.1 °F (10:53 pm)
Dewpoint24.6 °F28.4 °F (10:50 am)21 °F (7:53 pm)
Humidity78.6 %93 % (7:44 am)61 % (2:53 pm)
Barometer29.82 in29.87 in (7:53 am)29.77 in (2:13 pm)
Wind Speed4.5 mph8.1 mph (2:53 am)
Weather ElementAverage
Visibility8.7 mi
Wind DirectionS (179.2 °)

Weather ElementTotal
Precipitation---
Heating Degree Days35 (Base 65)
Averaged from 36 records on February 13, 2013
WEATHER CONDITIONS BREAKOUT
WIND DIRECTION BREAKOUT
WEATHER BY HOUR - FEBRUARY 13, 2013
[ °C ]   °F
Local TimeTemperatureDewpointHumidityBarometerVisibilityWind DirectionWind SpeedGust SpeedPrecipitationEventsConditions
1:53 AM30.0 °F25.0 °F82 %29.86 in10.0 miSW (220°)6.9 mph0.00 inOvercast
2:53 AM30.9 °F25.0 °F79 %29.86 in10.0 miSW (230°)8.1 mphOvercast
3:14 AM30.2 °F24.8 °F80 %29.84 in10.0 miSW (230°)6.9 mph0.00 inSnowLight Snow
3:53 AM30.9 °F24.1 °F76 %29.86 in9.0 miSW (230°)8.1 mph0.00 inSnowLight Snow
4:02 AM30.2 °F24.8 °F80 %29.84 in9.0 miSW (230°)6.9 mph0.00 inOvercast
4:27 AM30.2 °F24.8 °F80 %29.84 in10.0 miSW (230°)6.9 mph0.00 inOvercast
4:53 AM30.0 °F24.1 °F79 %29.86 in9.0 miSW (230°)6.9 mph0.00 inSnowLight Snow
5:11 AM30.2 °F24.8 °F80 %29.85 in8.0 miSW (230°)6.9 mph0.00 inSnowLight Snow
5:53 AM30.0 °F25.0 °F82 %29.86 in7.0 miSW (230°)4.6 mph0.00 inSnowLight Snow
6:53 AM28.9 °F25.0 °F85 %29.86 in8.0 miSW (220°)3.5 mph0.00 inSnowLight Snow
7:44 AM28.4 °F26.6 °F93 %29.85 in6.0 miSW (230°)3.5 mph0.00 inSnowLight Snow
7:53 AM28.9 °F26.1 °F89 %29.87 in6.0 miSW (230°)3.5 mph0.00 inSnowLight Snow
8:53 AM30.0 °F26.1 °F85 %29.87 in9.0 miSW (230°)6.9 mph0.00 inSnowLight Snow
9:49 AM30.2 °F26.6 °F86 %29.85 in10.0 miSW (230°)5.8 mph0.00 inOvercast
9:53 AM30.9 °F27.0 °F85 %29.86 in10.0 miSW (230°)6.9 mph0.00 inOvercast
10:26 AM30.2 °F26.6 °F86 %29.84 in4.0 miSW (220°)6.9 mph0.00 inSnowLight Snow
10:39 AM30.2 °F26.6 °F86 %29.83 in2.5 miSW (220°)4.6 mph0.00 inSnowLight Snow
10:50 AM30.2 °F28.4 °F93 %29.83 in4.0 miSW (230°)3.5 mph0.00 inSnowLight Snow
10:53 AM30.9 °F28.0 °F89 %29.85 in6.0 miSW (230°)3.5 mph0.00 inSnowLight Snow
11:48 AM32.0 °F24.8 °F75 %29.82 in9.0 miWSW (250°)6.9 mph0.00 inSnowLight Snow
11:53 AM32.0 °F25.0 °F75 %29.84 in6.0 miWSW (240°)5.8 mph0.00 inSnowLight Snow
12:53 PM32.0 °F27.0 °F82 %29.82 in9.0 miSSW (210°)5.8 mph0.00 inSnowLight Snow
1:53 PM33.1 °F25.0 °F72 %29.80 in10.0 miWSW (240°)3.5 mph0.00 inOvercast
2:13 PM33.8 °F24.8 °F70 %29.77 in10.0 miWest (280°)3.5 mphOvercast
2:21 PM33.8 °F24.8 °F70 %29.77 in10.0 miCalmOvercast
2:35 PM33.8 °F23.0 °F65 %29.77 in10.0 miWSW (240°)6.9 mphOvercast
2:53 PM34.0 °F21.9 °F61 %29.79 in10.0 miSW (220°)6.9 mphOvercast
3:53 PM33.1 °F23.0 °F66 %29.79 in10.0 miSW (220°)6.9 mphOvercast
4:53 PM32.0 °F23.0 °F69 %29.78 in10.0 miSW (220°)5.8 mphOvercast
5:53 PM32.0 °F23.0 °F69 %29.78 in10.0 miCalmOvercast
6:53 PM32.0 °F23.0 °F69 %29.79 in10.0 miCalmOvercast
7:53 PM28.9 °F21.0 °F72 %29.78 in10.0 miCalmOvercast
8:53 PM27.0 °F21.9 °F81 %29.80 in10.0 miCalmOvercast
9:53 PM27.0 °F21.0 °F78 %29.80 in10.0 miCalmOvercast
10:53 PM26.1 °F21.0 °F81 %29.80 in10.0 miCalmOvercast
11:53 PM28.0 °F21.9 °F78 %29.80 in10.0 miCalmOvercast
Hourly data recorded from KMSS, located miles away from Canton, New York







STORIES FROM OUR PARTNERS